User: anonymous   Login
Location: Unspecified
(0.0000°N, 0.0000°E)
Time: 13:53:51
(UTC+00:00)
Language:

COMSATBw-2 - Orbit

View from above orbital plane
View from above orbital plane
View from above satellite
View from above satellite

Ground track
Ground track

The orbit data is extracted from the following two-line orbital elements,

1 36582U 10021B   20090.29841091 +.00000088 +00000-0 +00000-0 0  9999
2 36582 000.0498 090.6439 0002234 302.1754 275.9219 01.00274917036196
Epoch (UTC): 30 March 2020 07:09:42
Eccentricity: 0.0002234
inclination: 0.0498°
perigee height: 35776 km
apogee height: 35795 km
right ascension of ascending node: 90.6439°
argument of perigee: 302.1754°
revolutions per day: 1.00274917
mean anomaly at epoch: 275.9219°
orbit number at epoch: 3619

The dashed part of the orbit path shows where the satellite is in the earth's shadow,  

DLR